Station Historical Data
Daily Summary for April 5, 2017 Units:  English    Metric   Both
« Previous Day
Next Day »
Daily Weekly Monthly Yearly Custom
  High: Low: Average:
Temperature: 53.5 °F 39.6 °F 45 °F
Dew Point: 41.9 °F 35.4 °F 37.8 °F
Humidity: 88% 63% 76%
Wind Speed: 14.0mph 0.0mph 5.2mph
Wind Gust: 21.0mph - -
Wind- - SSE
Pressure: 30.01 in 29.67 in -
Precipitation: 0.00 in    
Historical Graphs
 
 
Tabular Data for April 5, 2017
Time Temperature Dew Point Pressure Wind Wind Speed Wind Gust Humidity Rainfall Rate (Hourly)
00:04 40.4 °F 36.8 °F 29.76 in West 11.0 mph 16.0 mph 87% 0.00 in
00:09 40.3 °F 37.0 °F 29.76 in WSW 8.0 mph 16.0 mph 88% 0.00 in
00:14 40.3 °F 37.0 °F 29.77 in WSW 8.0 mph 17.0 mph 88% 0.00 in
00:19 40.3 °F 37.0 °F 29.77 in WSW 9.0 mph 17.0 mph 88% 0.00 in
00:29 40.2 °F 36.9 °F 29.77 in WSW 10.0 mph 19.0 mph 88% 0.00 in
00:34 40.2 °F 36.9 °F 29.77 in SW 7.0 mph 14.0 mph 88% 0.00 in
00:39 40.1 °F 36.8 °F 29.78 in WSW 8.0 mph 14.0 mph 88% 0.00 in
00:44 40.1 °F 36.8 °F 29.78 in WSW 8.0 mph 14.0 mph 88% 0.00 in
00:49 40.0 °F 36.7 °F 29.79 in WSW 7.0 mph 14.0 mph 88% 0.00 in
00:54 40.1 °F 36.8 °F 29.79 in WSW 7.0 mph 14.0 mph 88% 0.00 in
00:59 40.2 °F 36.6 °F 29.79 in WSW 7.0 mph 14.0 mph 87% 0.00 in
01:04 40.3 °F 36.4 °F 29.80 in WSW 6.0 mph 11.0 mph 86% 0.00 in
01:09 40.5 °F 36.6 °F 29.80 in West 6.0 mph 9.0 mph 86% 0.00 in
01:14 40.5 °F 36.3 °F 29.80 in WSW 5.0 mph 11.0 mph 85% 0.00 in
01:19 40.6 °F 36.4 °F 29.81 in WSW 8.0 mph 10.0 mph 85% 0.00 in
01:24 40.8 °F 36.0 °F 29.81 in West 4.0 mph 12.0 mph 83% 0.00 in
01:29 41.0 °F 35.9 °F 29.81 in West 7.0 mph 10.0 mph 82% 0.00 in
01:34 41.2 °F 35.8 °F 29.82 in West 14.0 mph 16.0 mph 81% 0.00 in
01:39 41.3 °F 35.6 °F 29.82 in WSW 7.0 mph 16.0 mph 80% 0.00 in
01:44 41.4 °F 35.7 °F 29.82 in West 7.0 mph 16.0 mph 80% 0.00 in
01:49 41.5 °F 35.5 °F 29.82 in West 7.0 mph 16.0 mph 79% 0.00 in
01:54 41.5 °F 35.5 °F 29.82 in West 7.0 mph 16.0 mph 79% 0.00 in
01:59 41.5 °F 35.5 °F 29.82 in West 7.0 mph 15.0 mph 79% 0.00 in
02:04 41.5 °F 35.8 °F 29.82 in West 6.0 mph 12.0 mph 80% 0.00 in
02:09 41.5 °F 35.8 °F 29.82 in West 6.0 mph 18.0 mph 80% 0.00 in
02:14 41.5 °F 35.8 °F 29.82 in West 6.0 mph 11.0 mph 80% 0.00 in
02:19 41.4 °F 35.7 °F 29.82 in SW 5.0 mph 11.0 mph 80% 0.00 in
02:24 41.4 °F 35.7 °F 29.82 in WSW 4.0 mph 15.0 mph 80% 0.00 in
02:29 41.4 °F 36.0 °F 29.83 in West 5.0 mph 10.0 mph 81% 0.00 in
02:34 41.3 °F 35.9 °F 29.82 in WSW 5.0 mph 11.0 mph 81% 0.00 in
02:39 41.3 °F 35.9 °F 29.82 in WSW 6.0 mph 9.0 mph 81% 0.00 in
02:44 41.1 °F 36.0 °F 29.83 in West 7.0 mph 12.0 mph 82% 0.00 in
02:49 41.0 °F 35.9 °F 29.83 in West 6.0 mph 12.0 mph 82% 0.00 in
02:54 40.9 °F 36.1 °F 29.83 in West 5.0 mph 11.0 mph 83% 0.00 in
02:59 40.7 °F 35.9 °F 29.83 in West 6.0 mph 12.0 mph 83% 0.00 in
03:04 40.6 °F 35.8 °F 29.83 in West 5.0 mph 12.0 mph 83% 0.00 in
03:09 40.6 °F 36.1 °F 29.83 in West 5.0 mph 10.0 mph 84% 0.00 in
03:19 40.6 °F 36.1 °F 29.83 in WNW 6.0 mph 11.0 mph 84% 0.00 in
03:24 40.6 °F 36.1 °F 29.84 in West 5.0 mph 14.0 mph 84% 0.00 in
03:29 40.7 °F 35.9 °F 29.84 in West 5.0 mph 14.0 mph 83% 0.00 in
03:34 40.7 °F 35.9 °F 29.85 in WNW 3.0 mph 10.0 mph 83% 0.00 in
03:39 40.7 °F 35.9 °F 29.85 in WSW 4.0 mph 9.0 mph 83% 0.00 in
03:44 40.8 °F 36.0 °F 29.86 in West 7.0 mph 14.0 mph 83% 0.00 in
03:49 40.8 °F 36.0 °F 29.86 in West 8.0 mph 10.0 mph 83% 0.00 in
03:54 40.8 °F 36.0 °F 29.87 in West 6.0 mph 12.0 mph 83% 0.00 in
03:59 40.7 °F 35.6 °F 29.88 in West 5.0 mph 12.0 mph 82% 0.00 in
04:04 40.8 °F 35.7 °F 29.88 in West 5.0 mph 11.0 mph 82% 0.00 in
04:09 40.8 °F 35.7 °F 29.88 in West 5.0 mph 13.0 mph 82% 0.00 in
04:14 40.8 °F 35.7 °F 29.89 in West 5.0 mph 13.0 mph 82% 0.00 in
04:19 40.8 °F 35.4 °F 29.88 in West 8.0 mph 10.0 mph 81% 0.00 in
04:24 40.8 °F 35.4 °F 29.88 in WNW 4.0 mph 11.0 mph 81% 0.00 in
04:29 40.8 °F 35.4 °F 29.89 in West 5.0 mph 11.0 mph 81% 0.00 in
04:34 40.9 °F 35.5 °F 29.89 in West 10.0 mph 15.0 mph 81% 0.00 in
04:39 40.9 °F 35.5 °F 29.90 in WNW 5.0 mph 10.0 mph 81% 0.00 in
04:44 40.9 °F 35.5 °F 29.90 in West 3.0 mph 9.0 mph 81% 0.00 in
04:49 40.9 °F 35.5 °F 29.90 in West 8.0 mph 8.0 mph 81% 0.00 in
04:54 40.9 °F 35.5 °F 29.91 in WSW 8.0 mph 10.0 mph 81% 0.00 in
04:59 40.9 °F 35.5 °F 29.91 in West 5.0 mph 11.0 mph 81% 0.00 in
05:04 40.9 °F 35.5 °F 29.91 in West 5.0 mph 11.0 mph 81% 0.00 in
05:09 40.9 °F 35.5 °F 29.92 in West 5.0 mph 11.0 mph 81% 0.00 in
05:14 40.9 °F 35.5 °F 29.92 in West 5.0 mph 8.0 mph 81% 0.00 in
05:19 40.9 °F 35.5 °F 29.92 in West 4.0 mph 9.0 mph 81% 0.00 in
05:24 40.9 °F 35.5 °F 29.92 in SW 8.0 mph 8.0 mph 81% 0.00 in
05:29 41.0 °F 35.6 °F 29.92 in WSW 4.0 mph 8.0 mph 81% 0.00 in
05:34 41.0 °F 35.6 °F 29.92 in WSW 3.0 mph 8.0 mph 81% 0.00 in
05:39 41.0 °F 35.9 °F 29.93 in WSW 4.0 mph 7.0 mph 82% 0.00 in
05:44 40.7 °F 35.6 °F 29.93 in SW 5.0 mph 7.0 mph 82% 0.00 in
05:49 40.2 °F 35.4 °F 29.93 in WSW 3.0 mph 8.0 mph 83% 0.00 in
05:54 39.9 °F 35.8 °F 29.93 in SW 4.0 mph 11.0 mph 85% 0.00 in
05:59 39.7 °F 35.6 °F 29.94 in WSW 3.0 mph 10.0 mph 85% 0.00 in
06:04 39.7 °F 35.9 °F 29.94 in WSW 2.0 mph 7.0 mph 86% 0.00 in
06:09 39.6 °F 35.8 °F 29.94 in WSW 3.0 mph 7.0 mph 86% 0.00 in
06:14 39.7 °F 35.9 °F 29.94 in WSW 3.0 mph 6.0 mph 86% 0.00 in
06:19 39.8 °F 36.2 °F 29.94 in WSW 3.0 mph 6.0 mph 87% 0.00 in
06:24 39.8 °F 36.2 °F 29.95 in SW 4.0 mph 7.0 mph 87% 0.00 in
06:29 39.8 °F 36.2 °F 29.94 in WSW 4.0 mph 7.0 mph 87% 0.00 in
06:34 39.8 °F 36.2 °F 29.95 in SW 2.0 mph 7.0 mph 87% 0.00 in
06:39 39.8 °F 36.2 °F 29.95 in WSW 4.0 mph 7.0 mph 87% 0.00 in
06:44 39.8 °F 36.2 °F 29.96 in South 5.0 mph 7.0 mph 87% 0.00 in
06:49 39.8 °F 36.2 °F 29.96 in WSW 3.0 mph 8.0 mph 87% 0.00 in
06:54 39.8 °F 36.2 °F 29.96 in SW 3.0 mph 8.0 mph 87% 0.00 in
06:59 39.8 °F 36.2 °F 29.96 in WSW 4.0 mph 5.0 mph 87% 0.00 in
07:04 39.9 °F 36.3 °F 29.97 in SW 3.0 mph 6.0 mph 87% 0.00 in
07:14 40.0 °F 36.4 °F 29.97 in WSW 4.0 mph 7.0 mph 87% 0.00 in
07:19 40.1 °F 36.2 °F 29.98 in WSW 3.0 mph 7.0 mph 86% 0.00 in
07:24 40.2 °F 36.3 °F 29.98 in WSW 4.0 mph 8.0 mph 86% 0.00 in
07:29 40.3 °F 36.4 °F 29.98 in WSW 4.0 mph 8.0 mph 86% 0.00 in
07:34 40.3 °F 36.4 °F 29.98 in WSW 3.0 mph 6.0 mph 86% 0.00 in
07:39 40.4 °F 36.5 °F 29.98 in West 2.0 mph 6.0 mph 86% 0.00 in
07:44 40.6 °F 36.7 °F 29.98 in West 3.0 mph 6.0 mph 86% 0.00 in
07:49 40.7 °F 36.8 °F 29.98 in West 3.0 mph 4.0 mph 86% 0.00 in
07:54 40.9 °F 36.7 °F 29.98 in WNW 1.0 mph 5.0 mph 85% 0.00 in
07:59 41.0 °F 36.8 °F 29.98 in NW 2.0 mph 3.0 mph 85% 0.00 in
08:04 41.0 °F 36.8 °F 29.98 in WNW 4.0 mph 4.0 mph 85% 0.00 in
08:09 41.1 °F 36.9 °F 29.98 in NW 2.0 mph 3.0 mph 85% 0.00 in
08:14 41.3 °F 36.8 °F 29.98 in NNW 1.0 mph 3.0 mph 84% 0.00 in
08:19 41.4 °F 36.6 °F 29.98 in NW 2.0 mph 6.0 mph 83% 0.00 in
08:24 41.6 °F 36.5 °F 29.98 in WNW 3.0 mph 6.0 mph 82% 0.00 in
08:29 41.9 °F 36.5 °F 29.99 in WNW 3.0 mph 8.0 mph 81% 0.00 in
08:34 42.0 °F 36.3 °F 29.98 in WNW 3.0 mph 8.0 mph 80% 0.00 in
08:39 42.0 °F 36.3 °F 29.98 in NW 3.0 mph 7.0 mph 80% 0.00 in
08:44 42.2 °F 36.5 °F 29.98 in West 2.0 mph 6.0 mph 80% 0.00 in
08:49 42.3 °F 36.3 °F 29.98 in WNW 2.0 mph 6.0 mph 79% 0.00 in
08:54 42.3 °F 36.3 °F 29.98 in NW 3.0 mph 6.0 mph 79% 0.00 in
08:59 42.2 °F 35.8 °F 29.98 in North 4.0 mph 6.0 mph 78% 0.00 in
09:04 42.2 °F 35.8 °F 29.98 in NNW 3.0 mph 7.0 mph 78% 0.00 in
09:09 42.4 °F 36.3 °F 29.98 in NNW 3.0 mph 5.0 mph 79% 0.00 in
09:14 42.6 °F 36.5 °F 29.98 in WNW 1.0 mph 5.0 mph 79% 0.00 in
09:19 42.8 °F 36.4 °F 29.98 in NNW 3.0 mph 7.0 mph 78% 0.00 in
09:24 42.5 °F 36.1 °F 29.98 in NNW 3.0 mph 9.0 mph 78% 0.00 in
09:29 42.5 °F 36.1 °F 29.99 in NNW 3.0 mph 9.0 mph 78% 0.00 in
09:34 42.4 °F 36.0 °F 29.99 in NW 3.0 mph 6.0 mph 78% 0.00 in
09:39 42.6 °F 36.2 °F 29.97 in NNW 4.0 mph 7.0 mph 78% 0.00 in
09:49 42.5 °F 36.1 °F 29.99 in NNW 5.0 mph 8.0 mph 78% 0.00 in
09:54 42.7 °F 36.6 °F 29.99 in North 4.0 mph 8.0 mph 79% 0.00 in
09:59 42.9 °F 36.8 °F 29.99 in WNW 3.0 mph 5.0 mph 79% 0.00 in
10:04 43.0 °F 36.6 °F 29.99 in NW 3.0 mph 6.0 mph 78% 0.00 in
10:09 43.1 °F 36.4 °F 29.98 in NNW 4.0 mph 7.0 mph 77% 0.00 in
10:14 42.9 °F 36.5 °F 29.99 in NNW 3.0 mph 7.0 mph 78% 0.00 in
10:19 42.8 °F 36.4 °F 29.98 in Calm   4.0 mph 78% 0.00 in
10:24 42.8 °F 36.1 °F 29.98 in North 3.0 mph 6.0 mph 77% 0.00 in
10:29 42.7 °F 36.0 °F 29.98 in North 3.0 mph 7.0 mph 77% 0.00 in
10:34 42.8 °F 36.1 °F 29.99 in NNW 3.0 mph 7.0 mph 77% 0.00 in
10:39 42.9 °F 36.2 °F 29.99 in NNW 2.0 mph 5.0 mph 77% 0.00 in
10:44 43.3 °F 36.6 °F 29.99 in North 3.0 mph 6.0 mph 77% 0.00 in
10:49 43.3 °F 36.2 °F 29.99 in NE 2.0 mph 7.0 mph 76% 0.00 in
10:54 43.3 °F 36.6 °F 29.99 in North 2.0 mph 5.0 mph 77% 0.00 in
10:59 43.7 °F 36.3 °F 29.99 in NNE 2.0 mph 5.0 mph 75% 0.00 in
11:04 43.8 °F 36.7 °F 29.99 in NNE 2.0 mph 4.0 mph 76% 0.00 in
11:09 44.2 °F 36.4 °F 29.99 in NNW 2.0 mph 5.0 mph 74% 0.00 in
11:14 44.2 °F 36.4 °F 30.00 in Calm   5.0 mph 74% 0.00 in
11:19 43.9 °F 36.5 °F 30.00 in Calm   5.0 mph 75% 0.00 in
11:24 44.1 °F 36.7 °F 30.00 in NNW 1.0 mph 3.0 mph 75% 0.00 in
11:29 44.2 °F 36.4 °F 30.01 in Calm   2.0 mph 74% 0.00 in
11:34 44.4 °F 36.6 °F 30.01 in WSW 1.0 mph 4.0 mph 74% 0.00 in
11:39 44.7 °F 36.9 °F 30.01 in WSW 2.0 mph 5.0 mph 74% 0.00 in
11:44 44.5 °F 36.4 °F 30.00 in WSW 2.0 mph 5.0 mph 73% 0.00 in
11:49 44.9 °F 37.5 °F 30.00 in South 2.0 mph 3.0 mph 75% 0.00 in
11:59 45.7 °F 37.5 °F 30.00 in SSE 2.0 mph 3.0 mph 73% 0.00 in
12:04 46.0 °F 38.2 °F 29.99 in SSE 1.0 mph 3.0 mph 74% 0.00 in
12:09 46.5 °F 37.6 °F 29.99 in SSW 2.0 mph 6.0 mph 71% 0.00 in
12:14 46.7 °F 37.8 °F 29.99 in WSW 2.0 mph 6.0 mph 71% 0.00 in
12:19 47.7 °F 39.1 °F 29.99 in SW 2.0 mph 5.0 mph 72% 0.00 in
12:24 47.0 °F 37.7 °F 29.99 in South 2.0 mph 5.0 mph 70% 0.00 in
12:29 47.3 °F 38.7 °F 29.98 in South 2.0 mph 5.0 mph 72% 0.00 in
12:34 48.6 °F 39.6 °F 29.98 in SSE 2.0 mph 4.0 mph 71% 0.00 in
12:39 47.7 °F 38.4 °F 29.98 in WNW 3.0 mph 4.0 mph 70% 0.00 in
12:44 47.4 °F 37.7 °F 29.98 in SSW 3.0 mph 4.0 mph 69% 0.00 in
12:49 48.1 °F 38.8 °F 29.98 in Calm   4.0 mph 70% 0.00 in
12:54 48.6 °F 38.9 °F 29.98 in NNE 4.0 mph 4.0 mph 69% 0.00 in
12:59 48.4 °F 38.7 °F 29.97 in SSE 3.0 mph 5.0 mph 69% 0.00 in
13:09 48.3 °F 38.6 °F 29.98 in Calm   5.0 mph 69% 0.00 in
13:14 48.8 °F 38.7 °F 29.97 in ESE 2.0 mph 5.0 mph 68% 0.00 in
13:19 49.9 °F 39.4 °F 29.97 in ESE 3.0 mph 4.0 mph 67% 0.00 in
13:24 48.9 °F 39.2 °F 29.96 in ESE 1.0 mph 4.0 mph 69% 0.00 in
13:29 50.0 °F 39.8 °F 29.96 in ESE 1.0 mph 4.0 mph 68% 0.00 in
13:34 50.0 °F 39.5 °F 29.96 in ENE 2.0 mph 7.0 mph 67% 0.00 in
13:39 50.2 °F 39.3 °F 29.96 in ESE 1.0 mph 8.0 mph 66% 0.00 in
13:44 50.3 °F 39.8 °F 29.96 in ESE 3.0 mph 8.0 mph 67% 0.00 in
13:49 50.5 °F 40.7 °F 29.96 in ENE 2.0 mph 8.0 mph 69% 0.00 in
13:54 50.6 °F 40.4 °F 29.96 in East 6.0 mph 6.0 mph 68% 0.00 in
13:59 50.1 °F 38.8 °F 29.96 in Calm   6.0 mph 65% 0.00 in
14:04 51.5 °F 41.7 °F 29.96 in SW 3.0 mph 4.0 mph 69% 0.00 in
14:09 50.9 °F 39.5 °F 29.96 in NE 2.0 mph 5.0 mph 65% 0.00 in
14:14 51.4 °F 40.0 °F 29.95 in East 2.0 mph 7.0 mph 65% 0.00 in
14:19 50.4 °F 39.1 °F 29.95 in NE 3.0 mph 7.0 mph 65% 0.00 in
14:24 51.6 °F 41.4 °F 29.94 in NE 2.0 mph 5.0 mph 68% 0.00 in
14:29 52.2 °F 40.8 °F 29.94 in NE 3.0 mph 10.0 mph 65% 0.00 in
14:34 51.5 °F 40.1 °F 29.93 in ENE 4.0 mph 10.0 mph 65% 0.00 in
14:39 50.8 °F 39.1 °F 29.92 in NNE 5.0 mph 8.0 mph 64% 0.00 in
14:44 52.1 °F 41.9 °F 29.93 in NE 2.0 mph 8.0 mph 68% 0.00 in
14:49 52.1 °F 40.3 °F 29.93 in NNE 4.0 mph 8.0 mph 64% 0.00 in
14:54 52.4 °F 41.0 °F 29.92 in NNE 4.0 mph 10.0 mph 65% 0.00 in
14:59 52.2 °F 40.4 °F 29.92 in NE 4.0 mph 10.0 mph 64% 0.00 in
15:04 51.7 °F 39.9 °F 29.91 in ENE 5.0 mph 11.0 mph 64% 0.00 in
15:09 51.2 °F 39.8 °F 29.90 in North 3.0 mph 7.0 mph 65% 0.00 in
15:14 51.6 °F 40.6 °F 29.91 in East 6.0 mph 10.0 mph 66% 0.00 in
15:24 51.6 °F 40.2 °F 29.91 in ENE 4.0 mph 10.0 mph 65% 0.00 in
15:29 51.9 °F 40.5 °F 29.91 in ENE 3.0 mph 8.0 mph 65% 0.00 in
15:34 51.8 °F 40.0 °F 29.90 in NE 2.0 mph 9.0 mph 64% 0.00 in
15:39 51.6 °F 40.2 °F 29.90 in NE 4.0 mph 8.0 mph 65% 0.00 in
15:44 52.2 °F 41.2 °F 29.90 in NNE 5.0 mph 11.0 mph 66% 0.00 in
15:49 53.1 °F 41.2 °F 29.89 in NE 5.0 mph 12.0 mph 64% 0.00 in
15:54 52.6 °F 41.2 °F 29.89 in NE 6.0 mph 13.0 mph 65% 0.00 in
15:59 53.4 °F 41.1 °F 29.88 in NE 6.0 mph 13.0 mph 63% 0.00 in
16:04 52.6 °F 40.8 °F 29.88 in NE 5.0 mph 12.0 mph 64% 0.00 in
16:09 52.2 °F 41.2 °F 29.87 in NE 5.0 mph 14.0 mph 66% 0.00 in
16:14 52.8 °F 41.0 °F 29.87 in NE 6.0 mph 14.0 mph 64% 0.00 in
16:19 52.9 °F 41.8 °F 29.86 in ENE 8.0 mph 10.0 mph 66% 0.00 in
16:24 53.3 °F 41.0 °F 29.86 in NE 8.0 mph 13.0 mph 63% 0.00 in
16:29 52.4 °F 41.0 °F 29.86 in NE 6.0 mph 13.0 mph 65% 0.00 in
16:34 53.4 °F 41.9 °F 29.86 in NE 7.0 mph 14.0 mph 65% 0.00 in
16:39 53.5 °F 41.6 °F 29.86 in NNE 3.0 mph 11.0 mph 64% 0.00 in
16:44 53.0 °F 41.1 °F 29.85 in NNE 4.0 mph 12.0 mph 64% 0.00 in
16:49 52.6 °F 41.2 °F 29.85 in NNE 4.0 mph 14.0 mph 65% 0.00 in
16:54 53.3 °F 41.8 °F 29.84 in ENE 4.0 mph 10.0 mph 65% 0.00 in
16:59 53.1 °F 41.6 °F 29.84 in NE 6.0 mph 13.0 mph 65% 0.00 in
17:04 52.5 °F 41.9 °F 29.84 in NE 7.0 mph 14.0 mph 67% 0.00 in
17:09 53.0 °F 41.9 °F 29.83 in NE 7.0 mph 14.0 mph 66% 0.00 in
17:14 53.2 °F 41.7 °F 29.83 in NE 8.0 mph 18.0 mph 65% 0.00 in
17:19 52.6 °F 41.6 °F 29.83 in NE 8.0 mph 18.0 mph 66% 0.00 in
17:24 52.8 °F 41.7 °F 29.82 in ENE 11.0 mph 14.0 mph 66% 0.00 in
17:29 52.4 °F 41.4 °F 29.82 in NE 8.0 mph 14.0 mph 66% 0.00 in
17:34 52.2 °F 41.2 °F 29.82 in NE 4.0 mph 17.0 mph 66% 0.00 in
17:39 52.1 °F 41.5 °F 29.82 in East 11.0 mph 14.0 mph 67% 0.00 in
17:44 52.1 °F 41.5 °F 29.82 in NNE 8.0 mph 15.0 mph 67% 0.00 in
17:49 52.4 °F 41.8 °F 29.82 in NE 10.0 mph 16.0 mph 67% 0.00 in
17:54 52.1 °F 41.1 °F 29.83 in East 9.0 mph 15.0 mph 66% 0.00 in
17:59 51.5 °F 41.3 °F 29.82 in NE 10.0 mph 17.0 mph 68% 0.00 in
18:04 51.4 °F 41.2 °F 29.82 in NE 7.0 mph 17.0 mph 68% 0.00 in
18:09 51.4 °F 41.2 °F 29.82 in NE 6.0 mph 16.0 mph 68% 0.00 in
18:14 51.4 °F 41.2 °F 29.82 in NE 6.0 mph 14.0 mph 68% 0.00 in
18:19 50.8 °F 41.0 °F 29.83 in NE 6.0 mph 16.0 mph 69% 0.00 in
18:24 50.6 °F 40.8 °F 29.83 in NE 7.0 mph 16.0 mph 69% 0.00 in
18:29 50.7 °F 41.3 °F 29.83 in NE 6.0 mph 14.0 mph 70% 0.00 in
18:34 50.5 °F 40.7 °F 29.83 in ENE 9.0 mph 14.0 mph 69% 0.00 in
18:39 50.2 °F 40.8 °F 29.83 in NNE 6.0 mph 11.0 mph 70% 0.00 in
18:44 50.1 °F 40.7 °F 29.83 in NE 5.0 mph 12.0 mph 70% 0.00 in
18:49 50.1 °F 40.7 °F 29.82 in NE 8.0 mph 14.0 mph 70% 0.00 in
18:54 49.9 °F 40.5 °F 29.82 in NNE 6.0 mph 15.0 mph 70% 0.00 in
18:59 49.7 °F 40.3 °F 29.82 in ENE 7.0 mph 15.0 mph 70% 0.00 in
19:04 49.4 °F 40.0 °F 29.81 in ENE 9.0 mph 18.0 mph 70% 0.00 in
19:09 49.2 °F 39.8 °F 29.81 in NE 10.0 mph 19.0 mph 70% 0.00 in
19:14 49.0 °F 40.0 °F 29.80 in NE 9.0 mph 19.0 mph 71% 0.00 in
19:19 48.9 °F 39.9 °F 29.80 in NE 9.0 mph 18.0 mph 71% 0.00 in
19:24 48.8 °F 39.8 °F 29.80 in NE 10.0 mph 18.0 mph 71% 0.00 in
19:29 48.8 °F 39.8 °F 29.80 in NE 9.0 mph 17.0 mph 71% 0.00 in
19:34 48.7 °F 39.7 °F 29.79 in ENE 9.0 mph 17.0 mph 71% 0.00 in
19:39 48.6 °F 39.6 °F 29.79 in ENE 9.0 mph 16.0 mph 71% 0.00 in
19:44 48.3 °F 39.3 °F 29.78 in NE 9.0 mph 19.0 mph 71% 0.00 in
19:49 47.8 °F 39.2 °F 29.78 in NE 7.0 mph 17.0 mph 72% 0.00 in
19:54 47.2 °F 38.6 °F 29.77 in NE 10.0 mph 16.0 mph 72% 0.00 in
19:59 46.9 °F 38.7 °F 29.76 in NE 6.0 mph 19.0 mph 73% 0.00 in
20:04 46.7 °F 38.5 °F 29.76 in NNE 7.0 mph 16.0 mph 73% 0.00 in
20:09 46.5 °F 38.3 °F 29.76 in NE 9.0 mph 20.0 mph 73% 0.00 in
20:14 46.2 °F 38.4 °F 29.77 in NE 10.0 mph 20.0 mph 74% 0.00 in
20:19 46.0 °F 38.2 °F 29.76 in NE 10.0 mph 18.0 mph 74% 0.00 in
20:24 45.7 °F 37.9 °F 29.76 in NE 11.0 mph 21.0 mph 74% 0.00 in
20:29 45.4 °F 37.6 °F 29.77 in NE 12.0 mph 21.0 mph 74% 0.00 in
20:34 45.1 °F 37.6 °F 29.77 in NE 10.0 mph 18.0 mph 75% 0.00 in
20:39 44.7 °F 37.3 °F 29.77 in NE 8.0 mph 18.0 mph 75% 0.00 in
20:44 44.4 °F 37.0 °F 29.77 in NE 10.0 mph 17.0 mph 75% 0.00 in
20:49 44.2 °F 37.1 °F 29.77 in NNE 7.0 mph 14.0 mph 76% 0.00 in
20:54 44.0 °F 36.9 °F 29.77 in ENE 10.0 mph 19.0 mph 76% 0.00 in
20:59 44.0 °F 36.9 °F 29.77 in NE 7.0 mph 14.0 mph 76% 0.00 in
21:04 43.9 °F 36.8 °F 29.77 in NE 5.0 mph 18.0 mph 76% 0.00 in
21:09 43.9 °F 36.8 °F 29.77 in NE 8.0 mph 15.0 mph 76% 0.00 in
21:14 44.0 °F 36.9 °F 29.77 in NNE 4.0 mph 13.0 mph 76% 0.00 in
21:19 44.1 °F 37.3 °F 29.77 in ENE 7.0 mph 14.0 mph 77% 0.00 in
21:24 44.2 °F 37.1 °F 29.77 in ENE 7.0 mph 14.0 mph 76% 0.00 in
21:29 44.3 °F 37.2 °F 29.77 in NE 7.0 mph 14.0 mph 76% 0.00 in
21:34 44.3 °F 37.2 °F 29.77 in ENE 8.0 mph 14.0 mph 76% 0.00 in
21:39 44.4 °F 37.3 °F 29.77 in ENE 8.0 mph 15.0 mph 76% 0.00 in
21:44 44.3 °F 37.2 °F 29.77 in ENE 8.0 mph 15.0 mph 76% 0.00 in
21:49 44.2 °F 37.1 °F 29.76 in NE 8.0 mph 16.0 mph 76% 0.00 in
21:54 44.2 °F 37.1 °F 29.76 in NE 5.0 mph 13.0 mph 76% 0.00 in
21:59 44.1 °F 37.3 °F 29.75 in NE 8.0 mph 16.0 mph 77% 0.00 in
22:04 44.1 °F 37.3 °F 29.75 in East 7.0 mph 16.0 mph 77% 0.00 in
22:09 44.2 °F 37.4 °F 29.75 in NE 8.0 mph 14.0 mph 77% 0.00 in
22:14 44.2 °F 37.4 °F 29.75 in NE 5.0 mph 12.0 mph 77% 0.00 in
22:19 44.2 °F 37.8 °F 29.74 in NE 9.0 mph 16.0 mph 78% 0.00 in
22:24 44.3 °F 37.9 °F 29.74 in ENE 6.0 mph 16.0 mph 78% 0.00 in
22:29 44.4 °F 38.0 °F 29.73 in ENE 7.0 mph 15.0 mph 78% 0.00 in
22:34 44.5 °F 38.1 °F 29.73 in ENE 8.0 mph 16.0 mph 78% 0.00 in
22:39 44.5 °F 38.1 °F 29.73 in ENE 7.0 mph 16.0 mph 78% 0.00 in
22:44 44.6 °F 38.2 °F 29.72 in East 10.0 mph 13.0 mph 78% 0.00 in
22:49 44.5 °F 37.7 °F 29.72 in NE 9.0 mph 16.0 mph 77% 0.00 in
22:54 44.5 °F 37.7 °F 29.72 in ENE 8.0 mph 17.0 mph 77% 0.00 in
22:59 44.5 °F 37.7 °F 29.72 in ENE 8.0 mph 17.0 mph 77% 0.00 in
23:04 44.5 °F 37.7 °F 29.72 in East 9.0 mph 17.0 mph 77% 0.00 in
23:09 44.4 °F 37.6 °F 29.71 in ENE 8.0 mph 16.0 mph 77% 0.00 in
23:14 44.3 °F 37.5 °F 29.71 in East 11.0 mph 14.0 mph 77% 0.00 in
23:19 44.2 °F 37.8 °F 29.70 in ESE 7.0 mph 15.0 mph 78% 0.00 in
23:24 44.0 °F 37.6 °F 29.70 in East 6.0 mph 16.0 mph 78% 0.00 in
23:29 43.8 °F 37.4 °F 29.69 in ENE 8.0 mph 16.0 mph 78% 0.00 in
23:34 43.6 °F 37.2 °F 29.69 in ENE 8.0 mph 16.0 mph 78% 0.00 in
23:39 43.5 °F 37.4 °F 29.69 in ENE 8.0 mph 16.0 mph 79% 0.00 in
23:44 43.5 °F 37.4 °F 29.68 in ENE 8.0 mph 16.0 mph 79% 0.00 in
23:49 43.3 °F 37.2 °F 29.67 in ENE 4.0 mph 15.0 mph 79% 0.00 in
23:59 43.2 °F 37.1 °F 29.67 in NE 9.0 mph 16.0 mph 79% 0.00 in
Buffalo, New York, USA
Compliments of Weather Underground - 2.5 mb